Regional Weather Roundup
Issued by NWS

Home | Current Version | Previous Version | Graphics & Text | Print | Product List | Glossary On
Versions: 1 2 3 4 5 6 7 8 9 10 11 12 13 14 15 16 17 18 19 20 21 22 23 24 25 26 27 28 29 30 31 32 33 34 35 36 37 38 39 40 41 42 43 44 45 46 47 48 49 50
000
ASUS45 KCYS 252210
RWRWY

WYOMING REGIONAL WEATHER ROUNDUP
NATIONAL WEATHER SERVICE CHEYENNE WY
400 PM MDT TUE JUL 25 2017

NOTE:  "FAIR" INDICATES FEW OR NO CLOUDS BELOW 12,000 FEET
WITH NO SIGNIFICANT WEATHER AND/OR OBSTRUCTIONS TO VISIBILITY.

WYZ001-252300-
YELLOWSTONE NATIONAL PARK

CITY           SKY/WX    TMP DP  RH WIND       PRES   REMARKS
LK YELLOWSTONE   N/A     52  52 100 CALM      30.41R
W YELLOWSTONE  NOT AVBL

$$
WYZ002>013-054>058-071-098>099-252300-
NORTHERN WYOMING

CITY           SKY/WX    TMP DP  RH WIND       PRES   REMARKS
JACKSON        CLOUDY    61  55  82 NW10      30.31S
CODY           RAIN      59  51  75 N6        30.23R
GREYBULL       CLOUDY    75  42  30 NW8       30.14R
WORLAND        CLOUDY    74  46  36 NE6       30.16R
SHERIDAN       PTSUNNY   72  49  44 S6        30.15F
BUFFALO        LGT RAIN  65  56  72 CALM      30.22R
GILLETTE       CLOUDY    73  57  57 N10       30.12F
HULETT         LGT RAIN  77  54  44 NE5       30.15R
NEWCASTLE      FAIR      81  45  28 NE10      30.07S

$$
WYZ014>020-022>026-101>103-252300-
CENTRAL WYOMING

CITY           SKY/WX    TMP DP  RH WIND       PRES   REMARKS
BIG PINEY      CLOUDY    70  50  49 E8        30.27S
PINEDALE       CLOUDY    66  46  48 MISG      30.29S
DUBOIS         CLOUDY    64  41  42 E7G16     30.32R
LANDER         CLOUDY    70  48  45 N5        30.20R
RIVERTON       CLOUDY    70  52  52 NE13      30.21S
CASPER         CLOUDY    75  50  41 N12       30.18R
DOUGLAS        PTSUNNY   81  50  33 N9        30.13R

$$
WYZ021-027>030-104>119-252300-
SOUTHERN WYOMING

CITY           SKY/WX    TMP DP  RH WIND       PRES   REMARKS
EVANSTON       CLOUDY    68  55  63 N9        30.28S
KEMMERER         N/A     72  46  40 W13G18    30.28S
FORT BRIDGER   DRIZZLE   72  51  47 SW10      30.30R
ROCK SPRINGS   CLOUDY    71  51  49 E7        30.24F
RAWLINS        LGT RAIN  63  58  83 CALM      30.29F
SARATOGA       LGT RAIN  61  61 100 NE5       30.31S
LARAMIE        RAIN      63  57  81 NW17      30.30R
CHEYENNE       CLOUDY    83  49  30 N15G25    30.16R
TORRINGTON     FAIR      91  52  26 N14G21    29.99S
PINE BLUFFS    FAIR      88  41  19 N9G17     30.07F

$$



USA.gov is the U.S. government's official web portal to all federal, state and local government web resources and services.